Weather in Sejmchan

Russia / Magadan District     62°55′34″N   152°24′17″E
temp.,
°C
wind,
m/s
gust,
m/s
humid.,
%
clouds,
%
prec.,
mm/h
press.,
hPa
HPBL,
m
12 august, fri
fri1223:00+14se2284100 1.4 100211
02:00+13se2288100 0.0 100310
05:00+13s2290100 0.0 100311
08:00+14sw1191100 0.1 100484
11:00+16s1282100 0.2 1005416
14:00+18s2270100 0.5 1006686
17:00+18s2163100 0.5 1006826
20:00+17ssw2272100 0.0 100711
13 august, sat
sat1323:00+12wnw00859 0.0 100811
02:00+11ne118786 0.0 100910
05:00+10nne118994 0.0 101010
08:00+16ne0172100 0.0 1010245
11:00+20ese115681 0.0 10101010
14:00+22ese11432 0.0 10081637
17:00+24se123719 0.0 10072114
20:00+20n005613 0.0 100811
14 august, sun
sun1423:00+15ne226798 0.0 100811
02:00+17nne2255100 0.0 100811
05:00+16ne2262100 0.1 100811
08:00+20ene124999 0.0 1009282
11:00+22ese2243100 0.0 10091184
14:00+23ese4439100 0.0 10091851
17:00+17n9866100 0.5 1010371
20:00+15n5771100 0.2 1011324
15 august, mon
mon1523:00+12n71079100 0.5 1012256
02:00+10n5790100 1.1 1013260
05:00+9n5690100 1.8 1013243
08:00+9n568399 0.1 1013255
11:00+10n448297 0.2 1013298
14:00+13nne447359 0.1 1011437
17:00+15nne336515 0.1 1011614
20:00+13nne457247 0.0 1010150
16 august, tue
tue1623:00+9nne448777 0.0 101047
02:00+10n4483100 0.1 100897
05:00+9nne4690100 0.2 1006104
08:00+12nne5778100 0.0 1005299
11:00+16nne6864100 0.1 1002719
14:00+17nne101262100 0.1 9991098
17:00+13nne4691100 3.9 998183
20:00+13n5895100 4.4 997177